Arroyo Seco, NM

10:47 AM MDT on July 25, 2016 (GMT -0600)
Taos Municipal

Weather History for KSKX - October, 2011

Change the Weather History Date:

Monday, October 31, 2011

  Actual Average Record
Temperature  
Mean Temperature 43 °F -  
Max Temperature 62 °F 53 °F 71 °F (2008)
Min Temperature 24 °F 24 °F 17 °F (2004)
Degree Days  
Heating Degree Days 22    
Moisture  
Dew Point 26 °F    
Average Humidity 54    
Maximum Humidity 86    
Minimum Humidity 27    
Precipitation  
Precipitation 0.00 in - - ()
Sea Level Pressure  
Sea Level Pressure 30.28 in    
Wind  
Wind Speed 4 mph (WNW)    
Max Wind Speed 20 mph    
Max Gust Speed 24 mph    
Visibility 10 miles    
Events      
Averages and records for this station are not official NWS values.
T = Trace of Precipitation, MM = Missing Value Source: NWS Daily Summary

Daily Weather History Graph

Daily Weather History Graph

Search for Another Location

Airport or City:

Trip Planner

Search our weather history database for the weather conditions in past years. The results will help you decide how hot, cold, wet, or windy it might be!

Date:

Astronomy

Oct. 31, 2011 Rise Set
Actual Time 7:24 AM MDT 6:07 PM MDT
Civil Twilight 6:58 AM MDT 6:33 PM MDT
Nautical Twilight 6:27 AM MDT 7:04 PM MDT
Astronomical Twilight 5:57 AM MDT 7:34 PM MDT
Moon 12:30 PM MDT (10/31) 10:49 PM MDT (10/31)
Length of Visible Light 11h 35m
Length of Day
10h 42m
Waxing Crescent, 30% of the Moon is Illuminated
Oct 31
Waxing Crescent
Nov 2
First Quarter
Nov 10
Full
Nov 18
Last Quarter
Nov 24
New

Hourly Weather History & Observations

Time (MDT) Temp. Windchill Dew Point Humidity Pressure Visibility Wind Dir Wind Speed Gust Speed Precip Events Conditions
12:15 AM 33.8 °F - 24.8 °F 70% 30.37 in 10.0 mi Calm Calm - N/A   Clear
12:35 AM 33.8 °F - 26.6 °F 75% 30.37 in 10.0 mi Calm Calm - N/A   Clear
12:55 AM 33.8 °F 30.8 °F 26.6 °F 75% 30.37 in 10.0 mi North 3.5 mph - N/A   Clear
1:15 AM 33.8 °F 30.8 °F 24.8 °F 70% 30.37 in 10.0 mi NNE 3.5 mph - N/A   Clear
1:35 AM 33.8 °F - 26.6 °F 75% 30.37 in 10.0 mi Calm Calm - N/A   Clear
1:55 AM 33.8 °F - 24.8 °F 70% 30.37 in 10.0 mi Calm Calm - N/A   Clear
2:15 AM 32.0 °F - 24.8 °F 75% 30.36 in 10.0 mi Calm Calm - N/A   Clear
2:35 AM 30.2 °F - 24.8 °F 80% 30.36 in 10.0 mi Calm Calm - N/A   Clear
2:55 AM 30.2 °F - 24.8 °F 80% 30.35 in 10.0 mi Calm Calm - N/A   Clear
3:15 AM 30.2 °F - 23.0 °F 75% 30.35 in 10.0 mi Calm Calm - N/A   Clear
3:35 AM 30.2 °F - 23.0 °F 75% 30.34 in 10.0 mi Calm Calm - N/A   Clear
3:55 AM 28.4 °F 24.6 °F 21.2 °F 74% 30.34 in 10.0 mi North 3.5 mph - N/A   Clear
4:15 AM 28.4 °F 23.3 °F 23.0 °F 80% 30.33 in 10.0 mi North 4.6 mph - N/A   Clear
4:35 AM 26.6 °F 21.2 °F 21.2 °F 80% 30.33 in 10.0 mi North 4.6 mph - N/A   Clear
5:15 AM 28.4 °F 21.2 °F 23.0 °F 80% 30.32 in 10.0 mi North 6.9 mph - N/A   Clear
5:55 AM 28.4 °F 21.2 °F 23.0 °F 80% 30.32 in 10.0 mi NNE 6.9 mph - N/A   Clear
6:15 AM 26.6 °F 20.0 °F 21.2 °F 80% 30.32 in 10.0 mi NNE 5.8 mph - N/A   Clear
6:35 AM 28.4 °F 20.4 °F 21.2 °F 74% 30.32 in 10.0 mi NNE 8.1 mph - N/A   Clear
6:55 AM 26.6 °F 20.0 °F 21.2 °F 80% 30.33 in 10.0 mi NNE 5.8 mph - N/A   Clear
7:15 AM 24.8 °F 19.1 °F 19.4 °F 80% 30.33 in 10.0 mi North 4.6 mph - N/A   Clear
7:35 AM 24.8 °F 19.1 °F 21.2 °F 86% 30.33 in 10.0 mi North 4.6 mph - N/A   Clear
7:55 AM 26.6 °F 22.6 °F 21.2 °F 80% 30.33 in 10.0 mi NNE 3.5 mph - N/A   Clear
8:15 AM 28.4 °F - 24.8 °F 86% 30.33 in 10.0 mi Calm Calm - N/A   Clear
8:35 AM 32.0 °F - 26.6 °F 80% 30.33 in 10.0 mi Calm Calm - N/A   Clear
8:55 AM 33.8 °F 28.6 °F 28.4 °F 81% 30.33 in 10.0 mi NNW 5.8 mph - N/A   Clear
9:15 AM 35.6 °F 31.7 °F 28.4 °F 75% 30.33 in 10.0 mi North 4.6 mph - N/A   Clear
9:35 AM 39.2 °F 35.0 °F 28.4 °F 65% 30.32 in 10.0 mi North 5.8 mph - N/A   Clear
9:55 AM 42.8 °F 41.1 °F 28.4 °F 57% 30.32 in 10.0 mi North 3.5 mph - N/A   Clear
10:15 AM 44.6 °F - 28.4 °F 53% 30.31 in 10.0 mi Calm Calm - N/A   Clear
10:35 AM 46.4 °F - 28.4 °F 50% 30.31 in 10.0 mi Calm Calm - N/A   Clear
10:55 AM 48.2 °F - 28.4 °F 46% 30.31 in 10.0 mi Calm Calm - N/A   Clear
11:15 AM 51.8 °F - 28.4 °F 41% 30.30 in 10.0 mi West 4.6 mph - N/A   Clear
11:35 AM 53.6 °F - 28.4 °F 38% 30.29 in 10.0 mi WSW 6.9 mph - N/A   Clear
11:55 AM 53.6 °F - 28.4 °F 38% 30.29 in 10.0 mi SW 8.1 mph - N/A   Clear
12:35 PM 57.2 °F - 30.2 °F 36% 30.27 in 10.0 mi WSW 5.8 mph - N/A   Clear
12:55 PM 57.2 °F - 30.2 °F 36% 30.25 in 10.0 mi SW 10.4 mph - N/A   Clear
1:15 PM 59.0 °F - 28.4 °F 31% 30.24 in 10.0 mi SW 10.4 mph - N/A   Clear
1:35 PM 60.8 °F - 28.4 °F 29% 30.23 in 10.0 mi WSW 15.0 mph 18.4 mph N/A   Clear
1:55 PM 60.8 °F - 28.4 °F 29% 30.21 in 10.0 mi SW 10.4 mph 19.6 mph N/A   Clear
2:15 PM 62.6 °F - 28.4 °F 27% 30.20 in 10.0 mi SW 17.3 mph - N/A   Clear
2:35 PM 62.6 °F - 28.4 °F 27% 30.20 in 10.0 mi WSW 19.6 mph 24.2 mph N/A   Clear
2:55 PM 60.8 °F - 28.4 °F 29% 30.19 in 10.0 mi SW 19.6 mph 24.2 mph N/A   Clear
3:15 PM 60.8 °F - 28.4 °F 29% 30.19 in 10.0 mi SW 12.7 mph 18.4 mph N/A   Clear
3:35 PM 60.8 °F - 26.6 °F 27% 30.19 in 10.0 mi SSW 11.5 mph 18.4 mph N/A   Clear
3:55 PM 60.8 °F - 26.6 °F 27% 30.19 in 10.0 mi SSW 11.5 mph 16.1 mph N/A   Clear
4:15 PM 60.8 °F - 28.4 °F 29% 30.19 in 10.0 mi SSW 5.8 mph 19.6 mph N/A   Clear
4:35 PM 60.8 °F - 26.6 °F 27% 30.18 in 10.0 mi West 13.8 mph 19.6 mph N/A   Clear
4:55 PM 60.8 °F - 26.6 °F 27% 30.18 in 10.0 mi WSW 13.8 mph 21.9 mph N/A   Clear
5:15 PM 60.8 °F - 26.6 °F 27% 30.18 in 10.0 mi WSW 13.8 mph - N/A   Clear
5:35 PM 57.2 °F - 26.6 °F 31% 30.19 in 10.0 mi WSW 11.5 mph - N/A   Clear
5:55 PM 55.4 °F - 26.6 °F 33% 30.19 in 10.0 mi SW 9.2 mph - N/A   Clear
6:15 PM 51.8 °F - 26.6 °F 38% 30.20 in 10.0 mi SSW 6.9 mph - N/A   Clear
6:35 PM 51.8 °F - 24.8 °F 35% 30.20 in 10.0 mi SSW 5.8 mph - N/A   Clear
6:55 PM 53.6 °F - 24.8 °F 33% 30.21 in 10.0 mi Calm Calm - N/A   Clear
7:15 PM 51.8 °F - 24.8 °F 35% 30.22 in 10.0 mi Calm Calm - N/A   Clear
7:35 PM 51.8 °F - 23.0 °F 33% 30.22 in 10.0 mi WNW 3.5 mph - N/A   Clear
7:55 PM 51.8 °F - 23.0 °F 33% 30.22 in 10.0 mi WNW 3.5 mph - N/A   Clear
8:15 PM 50.0 °F - 23.0 °F 35% 30.22 in 10.0 mi WNW 3.5 mph - N/A   Clear
8:35 PM 48.2 °F - 21.2 °F 34% 30.22 in 10.0 mi NW 4.6 mph - N/A   Clear
8:55 PM 46.4 °F 45.2 °F 21.2 °F 37% 30.22 in 10.0 mi NNW 3.5 mph - N/A   Clear
9:15 PM 41.0 °F - 24.8 °F 53% 30.22 in 10.0 mi Calm Calm - N/A   Clear
9:35 PM 37.4 °F 34.9 °F 26.6 °F 65% 30.22 in 10.0 mi North 3.5 mph - N/A   Clear
9:55 PM 37.4 °F - 24.8 °F 60% 30.22 in 10.0 mi Calm Calm - N/A   Clear
10:15 PM 37.4 °F 32.8 °F 24.8 °F 60% 30.22 in 10.0 mi NE 5.8 mph - N/A   Clear
10:35 PM 37.4 °F 33.8 °F 26.6 °F 65% 30.22 in 10.0 mi NE 4.6 mph - N/A   Clear
10:55 PM 37.4 °F 31.4 °F 26.6 °F 65% 30.21 in 10.0 mi NE 8.1 mph - N/A   Clear
11:15 PM 37.4 °F 32.1 °F 26.6 °F 65% 30.21 in 10.0 mi ENE 6.9 mph - N/A   Clear
11:35 PM 33.8 °F 30.8 °F 24.8 °F 70% 30.21 in 10.0 mi NNW 3.5 mph - N/A   Clear
11:55 PM 33.8 °F - 24.8 °F 70% 30.20 in 10.0 mi Calm Calm - N/A   Clear